Regional Weather Roundup
Issued by NWS Huntsville, AL

Home | Current Version | Previous Version | Text Only | Print | Product List | Glossary On
Versions: 1 2 3 4 5 6 7 8 9 10 11 12 13 14 15 16 17 18 19 20 21 22 23 24 25 26 27 28 29 30 31 32 33 34 35 36 37 38 39 40 41 42 43 44 45 46 47 48 49 50
000
ASUS44 KHUN 231324
RWRHUN

WEATHER ROUNDUP FOR THE TENNESSEE VALLEY
NATIONAL WEATHER SERVICE HUNTSVILLE AL
800 AM CDT WED APR 23 2014

ALZ001>004-231400-
NORTHWEST ALABAMA

CITY           SKY/WX    TMP DP  RH WIND       PRES   REMARKS
COURTLAND HCN    N/A     54 N/A N/A CALM        N/A
RUSSELLVILLE     N/A     50 N/A N/A MISG        N/A
SHOALS AIRPORT SUNNY     58  42  55 VRB6      30.05R
SHOALS TVA RES   N/A     54 N/A N/A MISG        N/A
$$

ALZ005>007-016-231400-
NORTH CENTRAL ALABAMA

CITY           SKY/WX    TMP DP  RH WIND       PRES   REMARKS
CULLMAN AG STN   N/A     55 N/A N/A N5          N/A
DECATUR AP     SUNNY     56  44  64 N9        30.04R
HUNTSVILLE AP  SUNNY     57  45  64 N8        30.03R
HUN NWS/UAH      N/A     57  38  49 NE7         N/A
MERIDIANVILLE  SUNNY     54  37  54 CALM      30.04R
REDSTONE ARSN  SUNNY     55  45  67 CALM      30.04
VINEMONT AP    FAIR      56  44  65 N6        30.04R
$$

ALZ008>010-231400-
NORTHEAST ALABAMA

CITY           SKY/WX    TMP DP  RH WIND       PRES   REMARKS
ALBERTVILLE    SUNNY     57  46  67 N6        30.01R
CROSSVILLE       N/A     55 N/A N/A CALM        N/A
FORT PAYNE     SUNNY     52  45  76 NE5       30.01R
SCOTTSBORO AP  SUNNY     55  45  67 NE5       30.03R
SCOTTSBORO HCN   N/A     48 N/A N/A MISG        N/A
VALLEY HEAD      N/A     46 N/A N/A MISG        N/A
$$

TNZ076-096-097-231400-
SOUTHEASTERN MIDDLE TENNESSEE

CITY           SKY/WX    TMP DP  RH WIND       PRES   REMARKS
FAYETTEVILLE   FAIR      52  40  63 NE8       30.03R
TULLAHOMA      SUNNY     54  34  47 NE8       30.05R
WINCHESTER     SUNNY     52  43  71 NE6       30.04S
$$

...SURROUNDING SITES...

CITY           SKY/WX    TMP DP  RH WIND       PRES   REMARKS
ATLANTA        SUNNY     59  47  64 NW10      29.95R
ANNISTON       SUNNY     61  47  59 NE8       29.99R
BIRMINGHAM     MOSUNNY   60  49  66 N5        30.01R
CHATTANOOGA    SUNNY     56  35  45 N17       30.02R
CORINTH        FAIR      54  45  71 NE3       30.05F
DALTON         SUNNY     55  41  58 N12       30.00R
GADSDEN        SUNNY     57  46  67 NE7       30.00R
GOLDEN TRNGL   SUNNY     57  48  72 NE6       30.04R
HALEYVILLE     FAIR      54  46  74 N5        30.05R
JACKSON TN     SUNNY     52  44  74 CALM      30.06R
LEWISBURG      FAIR      51  43  74 NE5       30.04R
MEMPHIS        MOSUNNY   58  42  55 NE8       30.05R
MURFREESBORO   FAIR      51  39  63 N7        30.06R
NASHVILLE      SUNNY     53  35  50 NE9       30.08R
OXFORD MS      FAIR      55  41  58 NE7       30.06S
ROME           SUNNY     58  44  60 N8        29.98R
TUPELO         SUNNY     56  45  66 NE9       30.04R
TUSCALOOSA     SUNNY     60  53  77 N3        30.00R
$$

...GULF COAST WEATHER...

CITY           SKY/WX    TMP DP  RH WIND       PRES   REMARKS
GULFPORT       SUNNY     68  62  81 N3        29.97R
PASCAGOULA     MOSUNNY   63  63 100 N3        29.97R FOG
MOBILE         SUNNY     65  64  97 N7        29.97R
GULF SHORES    SUNNY     66  64  93 N3        29.97R
PENSACOLA      MOSUNNY   65  64  97 NW5       29.96R
DESTIN         SUNNY     68  64  87 N6        29.96R
PANAMA CITY    CLOUDY    68  66  94 VRB2      29.95R
APPALACHICOLA  CLOUDY    70  65  84 NW3       29.95R
$$




USA.gov is the U.S. government's official web portal to all federal, state and local government web resources and services.